This is the latest recevied telemetry packets stored in our database for station/object OK4AB-10. If no packets are shown the sender has not sent any telemetry packets the latest 1 day(s).
Telemetry packets is used to share measurements like repeteater parameters, battery voltage, radiation readings (or any other measurements).
| Time | Temperatu* | Humidity* | Pressure* | Battery* | Satellite* |
|---|---|---|---|---|---|
| 1778005753 | 28.48 C | 42.59 % | 963.5 hPa | 0 V | 12 |
| 1778005693 | 28.51 C | 42.57 % | 963.5 hPa | 0 V | 12 |
| 1778005634 | 28.52 C | 42.53 % | 963.5 hPa | 0 V | 12 |
| 1778005573 | 28.54 C | 42.54 % | 963.5 hPa | 0 V | 12 |
| 1778005513 | 28.54 C | 42.54 % | 963.5 hPa | 0 V | 12 |
| 1778005454 | 28.54 C | 42.52 % | 963.5 hPa | 0 V | 12 |
| 1778005393 | 28.54 C | 42.57 % | 963.5 hPa | 0 V | 12 |
| 1778005333 | 28.55 C | 42.57 % | 963.5 hPa | 0 V | 12 |
| 1778005274 | 28.55 C | 42.57 % | 963.5 hPa | 0 V | 12 |
| 1778005213 | 28.55 C | 42.55 % | 963.5 hPa | 0 V | 12 |
| 1778005153 | 28.54 C | 42.59 % | 963.4 hPa | 0 V | 12 |
| 1778005093 | 28.54 C | 40.54 % | 963.4 hPa | 0 V | 12 |
| 1778005033 | 28.54 C | 42.62 % | 963.4 hPa | 0 V | 12 |
| 1778004973 | 28.54 C | 42.61 % | 963.4 hPa | 0 V | 12 |
| 1778004913 | 28.54 C | 42.62 % | 963.4 hPa | 0 V | 12 |
| 1778004853 | 28.54 C | 42.6 % | 963.4 hPa | 0 V | 12 |
| 1778004793 | 28.54 C | 42.59 % | 963.4 hPa | 0 V | 12 |
| 1778004733 | 28.54 C | 42.58 % | 963.4 hPa | 0 V | 12 |
| 1778004673 | 28.54 C | 42.61 % | 963.4 hPa | 0 V | 12 |
| 1778004613 | 28.54 C | 42.58 % | 963.4 hPa | 0 V | 12 |
| 1778004553 | 28.54 C | 42.59 % | 963.5 hPa | 0 V | 12 |
| 1778004493 | 28.54 C | 42.6 % | 963.5 hPa | 0 V | 12 |
| 1778004433 | 28.54 C | 42.61 % | 963.5 hPa | 0 V | 12 |
| 1778004373 | 28.54 C | 42.61 % | 963.5 hPa | 0 V | 12 |
| 1778004313 | 28.54 C | 42.62 % | 963.5 hPa | 0 V | 12 |
*Used Equation Coefficients:
Temperatu: 0, 0.01, 0
Humidity: 0, 0.01, 0
Pressure: 0, 0.1, 800
Battery: 0, 0.01, 0
Satellite: 0, 1, 0
- The parameter names for the analog channels will be Value1, Value2, Value3 (up to Value5) if station has not sent a PARAM-packet that specifies the parameter names for each analog channel.
- Each analog value is a decimal number between 000 and 255 (according to APRS specifications). The receiver use the telemetry equation coefficientsto to restore the original sensor values. If no EQNS-packet with equation coefficients is sent we will show the values as is (this corresponds to the equation coefficients a=0, b=1 and c=0).
The sent equation coefficients is used in the equation: a * value2 + b * value + c. - The units for the analog values will not be shown if station has not sent a UNIT-packet specifying what unit's to use.
- The parameter names for the digital bits will be Bit1, Bit2, Bit3 (up to Bit8) if station has not sent a PARAM-packet that specifies the parameter names for each digital bit.
- All bit labels will be named "On" if station has not sent a UNIT-packet that specifies the label of each bit.
- A bit is considered to be On when the bit is 1 if station has not sent a BITS-packet that specifies another "Bit sense" (a BITS-packet specify the state of the bits that match the BIT labels)